Theta_e
314 313 313 313 313 312 311 311 310 310 309 309 308 308 308 308 308 308 307 308 308 308 308 308 310 310 310 310 310 310 309 308 308 308 309 308 308 307 308 306 305 304 304 304 303 302 301 300 299 298 298 284
311 311 311 311 310 309 309 309 308 308 307 307 307 306 305 304 304 305 305 305 306 307 307 306 308 310 310 310 309 309 308 308 308 308 308 308 307 306 305 305 304 302 303 303 302 302 301 300 298 297 296 283
304 307 307 307 307 306 306 305 305 305 304 303 303 302 301 299 299 299 301 301 302 303 304 304 304 307 308 308 309 307 307 307 307 307 307 307 307 306 305 304 303 301 301 302 301 301 300 299 297 296 290 283
295 302 304 304 304 304 303 303 302 302 301 301 299 299 298 297 292 293 293 298 294 299 300 300 300 304 307 307 307 306 306 306 306 306 306 306 306 305 304 303 301 300 300 301 300 300 299 298 297 284 281 281
293 296 297 298 301 301 301 300 299 298 296 294 295 294 294 292 288 288 289 289 289 294 292 297 298 300 302 304 305 304 303 303 305 306 306 305 304 303 302 300 297 298 299 300 299 299 298 297 285 284 282 282
290 290 292 289 290 291 291 293 293 291 289 291 287 291 288 287 288 286 287 288 291 288 290 291 296 297 298 300 301 301 300 299 302 303 303 302 302 301 299 297 286 287 292 295 298 297 296 286 283 283 283 282
289 288 288 287 287 288 291 290 288 287 288 286 286 286 286 287 286 285 286 287 289 288 290 289 293 294 295 296 297 297 295 296 297 299 299 299 299 298 295 286 284 284 283 284 292 291 285 282 283 283 283 283
288 288 287 286 286 286 286 285 286 285 286 286 286 286 285 285 286 284 283 287 288 287 284 284 288 290 290 290 291 293 287 291 292 293 293 294 294 290 287 284 284 284 283 284 283 283 283 282 282 282 283 282
288 287 287 286 286 285 285 285 285 285 285 285 285 285 284 284 284 283 282 282 282 282 282 282 282 282 282 283 282 288 282 283 283 284 283 283 285 283 284 283 283 283 284 284 283 283 283 282 282 282 283 281
288 287 286 286 286 285 284 284 284 284 284 284 284 284 284 283 282 281 281 281 281 280 281 281 281 281 281 281 281 283 281 281 281 281 281 282 282 282 282 282 282 282 284 282 282 282 282 282 282 281 282 281
284 284 285 286 286 284 284 283 283 283 283 283 283 283 284 281 280 280 279 279 279 279 280 280 280 280 280 279 279 281 280 280 280 280 280 280 281 281 281 281 282 282 282 282 281 282 282 282 282 282 281 281
283 282 283 286 286 284 286 283 282 282 282 282 282 283 282 283 279 279 278 278 278 278 278 279 279 279 279 279 279 280 279 279 279 279 279 279 280 280 280 280 280 281 281 281 281 281 281 281 281 281 281 281
281 281 282 282 283 283 285 281 281 282 282 281 281 281 281 282 278 278 277 277 278 277 277 278 278 278 278 278 278 278 278 278 278 278 278 278 278 279 278 279 279 281 280 280 280 280 280 281 281 281 281 281
280 280 280 280 281 282 283 280 281 281 280 280 279 279 279 280 279 277 277 277 277 277 277 277 277 278 277 277 277 277 276 277 277 277 276 277 277 277 277 278 278 279 278 279 279 279 280 280 280 280 280 280
279 280 279 281 279 280 280 279 280 280 279 279 279 279 278 278 279 278 277 276 276 276 276 276 276 276 277 276 276 276 276 276 276 276 275 276 276 276 276 277 277 277 277 277 278 279 279 279 279 279 280 280
279 278 279 279 279 279 279 280 277 277 278 280 278 278 277 278 277 279 276 276 277 277 276 276 276 276 275 275 275 276 275 275 275 275 275 275 276 275 276 276 276 277 277 276 277 277 278 278 278 279 279 279
277 278 278 278 278 279 280 278 278 276 277 278 278 277 277 277 278 278 277 276 277 277 275 276 275 275 276 275 275 275 275 274 274 274 274 274 276 274 275 275 275 277 276 275 276 277 277 277 278 278 278 278
276 277 278 279 277 279 278 277 276 278 276 278 278 277 276 276 278 276 275 276 275 275 275 275 275 275 274 274 274 274 274 273 273 273 273 274 273 275 274 273 274 274 274 274 275 275 276 277 277 277 277 278
278 276 276 276 277 277 277 277 276 275 276 275 276 276 275 276 278 275 275 275 275 275 275 275 274 274 273 274 274 273 273 273 272 272 272 273 272 273 273 273 274 274 273 273 273 274 275 275 276 276 276 277
276 276 275 276 279 276 276 276 275 275 275 275 275 276 275 275 276 274 274 274 275 274 274 274 273 273 273 273 273 272 272 272 272 272 272 272 272 272 271 272 271 273 272 272 273 273 274 274 276 275 276 276
275 276 275 275 276 276 275 274 274 275 275 275 274 274 274 274 276 273 273 274 274 274 274 273 273 272 272 273 272 271 271 271 272 271 272 271 273 272 270 271 271 271 271 271 272 273 273 273 275 274 275 276
275 275 276 275 275 278 274 274 274 275 274 274 274 273 273 273 274 274 272 273 274 273 276 273 272 271 272 272 271 271 270 270 271 271 271 270 271 272 270 270 270 270 271 272 272 272 272 273 273 274 275 275
275 275 275 275 274 274 274 273 274 275 273 274 274 273 273 273 272 274 272 273 273 273 273 271 271 271 271 271 271 270 270 270 271 271 271 270 270 271 270 271 270 270 271 271 271 271 272 273 274 274 274 276
274 274 276 273 273 273 274 272 276 275 273 274 273 275 273 272 271 272 274 272 272 272 273 271 271 270 271 270 270 269 269 269 269 270 269 269 269 269 270 271 270 270 270 270 269 271 272 272 273 273 275 275
273 273 273 273 272 273 272 274 275 273 273 274 274 273 273 273 272 271 272 273 271 272 272 271 270 270 270 270 270 269 269 269 269 270 269 269 269 269 268 268 269 269 270 268 268 270 270 271 273 275 277 277
274 274 273 272 273 272 272 272 272 272 273 274 273 273 273 273 271 271 271 272 272 273 271 270 270 270 269 269 269 270 270 270 270 269 268 268 267 269 268 266 269 268 269 265 266 266 267 270 272 274 276 276
273 273 275 273 273 272 272 272 273 272 275 273 271 271 272 272 271 271 271 271 272 272 271 270 270 269 269 268 270 268 268 268 267 268 267 267 267 266 267 267 269 268 268 265 267 267 268 265 269 272 272 273
273 274 273 274 273 273 272 271 274 272 271 271 270 271 272 271 271 271 270 271 271 271 271 270 270 269 269 268 269 268 267 267 267 267 267 267 267 267 264 266 266 269 268 267 267 261 264 265 267 262 268 268
275 275 274 273 273 273 272 272 271 270 270 270 271 271 271 270 271 271 271 270 270 271 271 270 270 269 269 268 268 269 267 267 266 267 267 267 266 265 265 264 266 266 268 267 269 265 264 260 262 260 265 266
275 275 273 272 271 269 269 268 268 268 268 269 268 268 270 270 270 270 270 270 270 270 271 270 270 268 268 268 268 269 267 266 266 266 266 267 266 265 266 265 264 264 267 268 267 268 268 267 261 262 263 265
276 273 273 272 271 270 270 269 269 269 269 269 269 270 269 270 269 270 268 269 269 269 270 270 269 268 268 268 267 269 267 266 266 266 266 267 266 266 267 266 262 263 264 266 266 267 267 267 267 267 264 259
Wind_Speed
23 23 23 23 23 21 19 18 17 17 16 16 17 17 18 17 16 16 17 16 17 17 17 17 16 15 15 16 16 16 16 15 15 15 15 15 14 14 14 14 15 16 16 16 16 16 15 15 16 16 11 5
22 21 22 22 21 20 20 20 19 19 19 19 20 19 19 19 19 20 20 20 20 19 19 19 19 17 17 16 16 17 17 16 16 15 15 15 15 14 14 13 14 16 16 16 16 15 15 15 15 13 11 5
14 22 22 21 20 20 19 19 19 18 18 18 18 19 18 18 18 18 20 20 20 20 20 20 19 18 18 18 18 18 18 17 17 17 16 16 15 16 16 15 15 15 16 16 16 16 16 15 13 12 7 5
10 15 19 18 18 18 17 18 17 17 17 17 16 17 17 17 13 14 13 20 14 18 19 19 17 19 18 19 19 19 19 18 18 17 17 16 16 16 16 17 16 16 15 16 16 16 16 15 12 6 4 5
9 11 15 13 17 18 18 18 18 18 17 16 15 14 15 14 10 8 8 10 9 15 11 17 18 19 19 19 19 19 19 20 19 19 19 18 17 17 17 17 15 15 16 16 15 16 16 14 7 6 6 5
7 8 12 10 9 9 11 13 14 12 10 10 8 13 11 8 8 7 7 8 11 8 11 12 19 18 19 19 19 19 19 19 19 19 19 19 19 19 18 17 8 8 11 14 15 14 14 8 6 6 6 6
8 9 8 8 9 8 11 10 10 8 9 8 8 8 7 7 6 6 6 8 9 8 13 13 17 18 18 19 19 19 18 19 19 19 19 19 18 18 17 9 7 7 6 7 12 11 7 6 6 6 6 6
7 7 7 7 7 7 7 7 7 7 8 7 7 7 6 6 6 6 6 9 14 12 8 9 13 17 17 17 17 20 12 16 16 19 18 18 18 11 7 7 7 7 6 6 6 6 6 6 6 6 6 6
7 6 7 6 6 6 6 6 6 6 7 7 7 7 6 6 5 6 6 7 7 7 7 7 7 8 8 7 8 14 8 8 8 10 9 8 9 7 7 7 7 7 7 7 7 6 6 6 6 6 6 6
6 7 7 6 6 6 6 6 6 6 7 7 7 6 6 5 7 7 7 7 7 7 7 7 7 7 6 7 7 8 7 7 7 8 7 7 7 7 6 6 6 6 6 6 7 7 7 7 6 6 6 6
6 7 5 5 6 7 6 6 7 7 6 7 7 7 7 7 7 7 7 7 7 7 6 6 6 6 6 6 7 7 6 7 7 7 7 7 7 6 7 7 7 7 7 6 6 6 7 7 7 7 7 6
7 5 6 6 6 6 7 6 6 6 6 5 7 7 6 6 6 6 7 6 6 6 5 6 5 5 5 6 6 5 6 6 6 7 7 7 7 7 7 7 7 6 6 7 6 6 6 7 7 7 7 7
6 6 6 6 6 6 6 6 5 5 5 6 6 6 6 5 6 6 5 6 5 4 5 5 5 5 5 5 6 6 6 6 6 6 6 6 7 6 7 6 7 7 7 6 6 6 6 6 6 7 7 7
6 6 7 6 6 5 6 6 5 4 6 5 5 6 5 6 5 6 5 5 4 5 5 4 4 5 5 5 5 5 6 6 5 6 6 6 6 6 6 6 7 7 6 6 6 6 6 6 6 6 6 6
6 6 6 5 5 5 5 4 5 5 5 5 5 5 5 5 5 5 4 5 4 4 4 4 4 4 4 5 5 4 5 4 5 5 5 6 6 6 6 5 5 6 6 6 6 5 5 7 6 6 6 6
6 5 5 4 4 5 4 3 4 5 5 5 4 4 4 4 5 4 4 4 4 4 4 4 4 4 4 5 4 4 4 5 4 4 4 5 4 5 4 5 5 5 5 6 6 6 6 6 6 6 6 6
4 4 4 5 4 4 3 4 4 5 4 4 3 3 4 3 4 4 4 4 4 4 3 3 4 4 4 4 4 4 4 5 4 5 5 5 4 5 4 5 6 5 5 5 6 6 6 6 6 6 6 6
4 3 3 3 4 3 4 4 4 4 4 3 4 4 4 3 4 4 5 3 3 3 3 3 3 3 4 4 4 4 5 6 5 6 6 6 6 6 6 7 6 7 7 6 5 5 6 6 6 6 7 6
3 3 3 3 3 3 3 3 4 3 3 3 3 3 4 4 3 4 4 4 3 4 3 3 3 3 4 4 4 4 5 5 5 5 6 6 7 6 6 6 6 7 7 8 8 7 6 7 7 6 7 7
3 3 3 2 3 3 3 3 3 3 3 3 3 4 4 3 3 4 4 4 3 4 3 3 4 3 4 3 3 4 4 5 5 6 5 5 6 7 7 8 8 6 8 8 9 8 7 7 7 7 7 7
2 2 3 3 2 3 3 3 3 2 2 3 3 3 4 3 3 4 4 4 3 3 3 4 4 3 3 3 3 4 4 4 4 5 5 5 5 4 7 7 8 8 7 9 9 9 8 8 8 7 7 7
3 2 3 3 4 3 4 4 3 2 3 3 3 3 3 3 3 3 4 4 3 3 3 3 3 3 4 3 4 4 4 4 4 4 4 6 5 5 6 6 7 9 8 8 9 9 10 9 7 7 7 7
2 2 2 3 3 3 4 5 4 3 5 3 4 4 3 3 4 3 4 4 3 3 3 3 3 4 3 3 4 4 4 4 5 4 5 6 5 5 4 5 6 7 9 10 9 9 9 7 7 8 8 6
1 1 1 2 1 2 2 3 2 3 2 2 4 2 3 3 3 3 3 4 3 3 3 3 3 3 3 3 3 4 5 5 5 6 7 7 7 7 5 4 6 6 9 9 9 9 8 7 9 10 8 5
2 2 1 1 1 1 0 1 0 1 1 1 1 1 1 1 2 3 2 3 3 3 3 3 3 3 3 3 3 4 4 3 5 5 5 6 5 7 7 6 6 6 8 8 8 6 8 8 8 9 5 1
2 2 3 3 3 2 2 0 0 0 0 1 1 1 0 1 1 2 2 2 2 2 2 2 2 3 3 3 3 3 3 3 5 5 5 6 5 5 6 6 7 7 9 5 8 11 12 5 6 3 2 2
2 2 2 3 2 2 1 1 1 1 1 0 2 1 0 1 1 1 2 1 2 1 1 2 2 2 2 3 3 3 3 3 5 5 6 6 6 7 4 4 5 6 9 5 9 6 7 7 9 1 3 3
4 4 3 3 2 1 3 2 1 0 0 1 2 2 0 0 1 1 1 1 1 1 1 2 2 2 2 2 3 3 2 3 4 5 5 6 6 6 6 5 5 7 7 5 9 6 3 5 5 9 1 9
4 4 3 1 1 0 1 0 0 0 2 1 1 2 2 2 0 1 1 1 1 1 1 2 2 2 1 2 3 2 2 3 3 3 3 5 4 6 6 6 5 5 5 4 6 2 5 4 3 2 8 15
5 5 6 4 4 3 3 4 3 5 4 3 2 3 2 2 2 2 2 2 1 1 2 1 2 1 1 1 3 2 2 2 2 2 4 4 3 5 5 5 6 6 5 3 5 4 1 3 2 7 8 6
6 6 5 7 6 5 5 5 5 3 3 4 4 3 3 3 2 3 2 2 2 2 1 2 2 1 0 0 0 2 2 2 2 2 3 3 3 3 4 5 3 6 5 4 2 4 4 6 6 5 6 2
Wind_Direction
57 58 58 57 57 55 55 55 52 48 46 43 42 40 38 37 37 34 33 30 28 28 27 21 16 12 14 10 12 9 9 8 7 8 8 7 7 7 8 7 7 8 6 7 9 11 12 12 11 8 18 14
60 62 61 60 60 59 57 56 55 53 51 48 46 45 42 41 38 38 37 33 33 30 28 23 17 18 18 17 16 15 11 8 4 2 3 3 5 5 5 5 3 2 1 1 3 4 6 8 7 8 11 2
55 64 66 66 65 65 64 63 62 59 58 55 52 49 47 44 40 36 35 34 30 29 25 24 18 16 17 17 18 17 13 9 5 1 359 359 0 2 3 3 3 359 356 356 357 357 358 360 5 5 13 352
67 69 75 78 77 76 74 71 67 63 60 58 56 53 51 49 44 37 33 35 29 26 24 22 22 19 17 18 18 18 16 12 10 7 4 3 4 8 11 13 10 3 356 352 351 351 351 352 358 359 350 348
62 63 66 61 62 62 62 59 57 53 49 47 44 47 45 45 42 36 34 33 29 27 23 22 23 20 19 18 18 18 16 13 11 11 10 10 10 11 15 15 11 4 359 357 353 351 348 351 352 338 342 338
53 51 55 52 51 55 54 55 54 51 49 47 44 43 45 43 40 36 33 32 30 27 23 19 22 21 19 18 16 17 15 13 10 10 9 8 10 10 11 12 10 358 352 352 352 351 351 352 339 337 335 334
55 55 55 51 51 49 53 54 53 51 50 48 47 48 46 45 44 44 37 34 35 32 27 24 22 20 19 17 15 14 12 12 9 9 7 7 8 8 8 8 1 353 349 343 347 349 349 340 336 333 334 333
58 57 58 55 49 52 51 50 53 52 51 47 47 48 47 44 43 43 40 32 30 30 24 17 19 18 17 14 12 13 11 8 5 7 4 3 7 7 3 358 356 351 344 346 342 341 343 339 333 333 328 330
59 58 64 58 54 55 50 51 49 49 49 46 43 44 47 45 45 42 38 32 29 27 21 21 17 15 15 9 8 9 9 5 0 3 360 357 1 2 357 355 351 351 346 344 342 339 335 336 333 333 332 328
60 58 58 56 53 59 49 48 49 46 44 41 35 36 41 41 42 37 36 33 30 27 21 21 19 13 11 11 10 8 5 2 0 359 358 357 355 352 351 349 345 344 346 340 339 337 335 336 336 333 329 331
58 53 51 56 56 57 49 39 48 43 40 40 38 32 33 39 33 32 32 30 28 26 22 25 18 15 10 12 9 4 4 3 358 357 356 352 349 344 347 346 345 343 343 343 338 335 333 334 332 332 329 330
57 51 51 51 52 54 54 51 49 44 42 43 41 37 37 48 40 34 30 27 25 19 20 23 16 13 17 16 11 5 5 3 359 356 355 349 346 347 347 342 340 338 340 337 338 332 332 329 329 327 325 324
54 50 55 47 48 49 51 51 49 46 45 45 39 40 36 39 39 38 36 28 24 13 25 18 14 16 18 15 11 8 6 8 356 357 354 350 344 344 341 339 336 337 334 331 330 330 324 325 322 322 322 321
54 43 55 45 44 45 49 47 44 46 47 41 42 37 36 31 47 38 34 25 13 27 18 18 14 20 16 15 7 11 7 1 359 352 349 348 344 343 338 336 332 334 324 328 325 321 319 320 315 312 310 310
54 51 54 50 50 48 52 46 45 47 46 44 40 38 34 40 36 47 35 30 17 28 22 17 20 18 16 14 11 8 2 355 357 352 348 344 340 341 331 329 326 324 322 320 322 315 317 309 313 308 305 304
57 53 53 53 55 56 48 53 54 52 48 47 42 33 33 38 39 37 32 32 17 31 18 17 20 12 18 12 3 2 358 357 351 353 342 338 334 334 315 323 323 313 320 317 311 313 310 305 306 302 299 298
63 60 57 55 57 56 56 48 54 55 47 49 42 35 30 31 40 29 28 19 19 17 14 18 18 20 15 2 358 354 355 359 346 354 350 343 346 330 336 332 326 324 313 308 312 314 306 301 298 293 293 288
75 58 63 65 49 53 50 50 49 47 41 44 38 43 33 30 38 29 15 24 5 11 15 18 27 27 9 0 356 355 355 4 352 356 353 345 350 340 349 334 331 330 325 316 306 307 303 300 293 292 288 282
84 85 74 72 70 56 60 62 61 51 47 45 38 49 39 26 38 27 21 12 16 358 24 29 27 26 7 356 358 3 353 8 351 0 355 346 347 336 340 331 332 327 321 318 316 310 306 300 295 290 284 280
74 75 77 65 69 64 57 52 58 49 53 50 45 52 44 26 33 32 20 16 13 14 17 42 28 18 6 1 6 3 0 8 2 358 353 351 340 339 340 334 329 328 321 318 312 309 300 293 291 286 285 283
63 60 63 61 48 73 54 48 39 38 63 54 57 56 52 26 38 35 26 19 15 25 29 36 36 2 9 3 9 8 9 10 359 2 351 352 344 346 330 328 323 327 323 317 312 306 299 290 285 279 275 277
50 38 40 37 28 35 36 23 20 16 52 48 67 58 50 48 36 43 31 26 17 21 38 40 38 6 10 6 9 17 9 1 1 353 358 352 337 352 332 327 334 325 322 316 309 305 298 291 279 270 271 267
48 33 35 37 36 26 28 9 354 22 24 29 44 44 39 43 39 31 33 30 18 28 45 34 27 22 8 6 13 18 5 0 3 357 6 353 338 346 321 331 324 321 318 315 307 297 291 287 285 279 266 266
68 61 107 68 24 40 29 356 347 7 46 24 53 39 47 50 43 30 31 29 16 31 38 42 23 29 11 13 17 16 9 359 4 354 2 355 348 337 338 348 315 331 321 313 300 300 295 290 282 269 264 266
161 154 141 148 151 172 195 305 50 339 0 66 73 75 75 87 61 54 39 37 21 33 34 35 25 32 21 11 21 19 3 353 358 6 6 348 350 336 347 345 327 346 323 328 317 304 297 292 263 257 266 138
160 189 179 163 201 168 220 225 240 286 69 117 25 65 77 97 81 68 74 42 34 40 70 39 31 35 26 18 9 15 351 13 8 11 7 352 350 340 358 337 336 355 342 1 342 334 321 328 274 241 130 103
185 197 179 151 191 162 244 210 210 189 193 148 32 355 178 103 87 102 81 57 36 64 50 51 62 37 42 22 6 1 1 6 16 10 6 0 351 340 356 326 338 9 356 333 316 299 293 326 348 308 7 329
202 182 182 166 176 214 170 231 293 98 9 48 22 328 316 298 123 136 125 106 78 75 88 76 66 52 41 24 359 352 10 9 17 3 9 357 0 355 341 342 345 4 342 352 339 1 331 308 324 334 93 337
183 185 156 123 87 96 332 309 275 313 273 202 274 288 316 281 199 190 154 142 120 84 116 89 98 77 36 21 355 349 39 25 10 352 19 340 11 2 330 333 335 354 332 3 354 20 337 340 3 236 326 328
186 189 182 173 175 192 188 225 200 215 213 214 213 223 226 279 212 212 176 169 154 128 129 123 133 110 69 15 4 337 61 27 359 353 14 335 19 340 327 334 337 331 336 14 357 327 359 293 271 320 316 352
193 197 195 195 197 198 204 212 228 201 201 187 224 206 237 243 234 200 181 193 172 154 165 149 153 136 131 102 346 323 82 24 344 6 344 341 351 320 337 333 337 322 329 347 327 327 342 332 310 307 334 267